Rbgn^[z[y[W
メイン
   新天体発見情報
     Comet C/2018 B1 (Lemmon)
投稿するにはまず登録を

フラット表示 前のトピック | 次のトピック
投稿者 スレッド
佐藤裕久
投稿日時: 2018-2-9 19:08
モデレータ
登録日: 2005-6-12
居住地: 日本
投稿: 2505
オンライン
Comet C/2018 B1 (Lemmon)

1月25日、A. D. Grauerは、Mt Lemmonサーベイのコースに1.5-m 反射望遠鏡で得たCCD画像から小惑星状
天体を発見した。小惑星センターのNEOCP webpageに公表後、W. H. Ryan (Magdalena Ridge 天文台, 
2.4-m f/8.9 反射望遠鏡; 報告によると、E. V. Ryansと彼が、2018年1月25.2日と26.1日UTの二夜に得た
画像から、それぞれp.a.約70°と50°に異なった尾のある彗星状に見え、彗星の頭部の点拡散関数 (PSF)
は近傍の恒星の1.5-2倍あり、光度は19.3-19.6等であることがわかった)らCCD位置観測者によって彗星状
と観測された。
2017年1月6.5日と28.5日UT、Haleakala にある1.8-m Pan-STARRS1 Ritchey-Chretien望遠鏡で得られた
各々一夜の観測は小惑星センターのG. V. Williams によって同定された。

発見位置は次のとおり、

     2018 UT             R.A. (2000) Decl.       Mag.   Observer
     Jan. 25.14389    3 50 50.57   +37 35 47.0   19.4   Grauer
          25.14920    3 50 50.20   +37 35 44.9   19.4     "
          25.15448    3 50 49.82   +37 35 43.7   19.8     "
          25.15974    3 50 49.49   +37 35 41.9   19.6     "

双曲線線軌道要素と位置推算表は次のとおり、

Orbital elements:
    C/2018 B1 (Lemmon)
Epoch 2018 Mar. 23.0 TT = JDT 2458200.5
T 2018 Mar. 30.55161 TT                                 MPCW
q   5.1170259            (2000.0)            P               Q
z  -0.0005992      Peri.   68.35212     +0.39402399     +0.89231035
 +/-0.0000160      Node   133.15846     +0.69132091     -0.44567575
e   1.0030661      Incl.  162.42299     +0.60565707     -0.07180090
From 73 observations 2017 Jan. 16-2018 Feb. 7, mean residual 0".5.

Ephemeris:
    C/2018 B1 (Lemmon)
Date    TT    R. A. (2000) Decl.     Delta      r     Elong.  Phase   m1
2018 01 08    04 14 08.1 +39 09 19   4.3808  5.1546   138.1     7.3  19.3
...
2018 01 23    03 53 19.0 +37 47 50   4.5783  5.1421   120.0     9.5  19.4
...
2018 01 31    03 44 43.5 +37 03 17   4.7065  5.1364   110.6    10.3  19.5
...
2018 02 06    03 39 23.3 +36 31 11   4.8097  5.1327   103.6    10.8  19.5
2018 02 07    03 38 35.3 +36 26 00   4.8274  5.1321   102.5    10.8  19.5
2018 02 08    03 37 48.7 +36 20 53   4.8451  5.1315   101.4    10.9  19.5
...
2018 02 14    03 33 39.4 +35 51 23   4.9533  5.1283    94.6    11.1  19.6
...
2018 02 22    03 29 22.2 +35 16 00   5.0999  5.1246    85.9    11.1  19.6
...
2018 03 09    03 24 37.6 +34 23 15   5.3700  5.1197    70.2    10.5  19.7

(CBET 4484、MPEC 2018-C27)

フラット表示 前のトピック | 次のトピック

題名 投稿者 日時
 » Comet C/2018 B1 (Lemmon) 佐藤裕久 2018-2-9 19:08

投稿するにはまず登録を
 
© 1999 Tsutomu Seki.